| time (UTC) | temp C | wind direction | speed KPH | gust KPH | rain 1hr cm | rain 24hr cm | rain mn cm | humidity % | barometer mb |
| 20260905050025 | 16 | 217 | 0.0 | 0.0 | 0.00 | 0.00 | 0.00 | 59 | 1006.9 |
| 20260905044523 | 16 | 217 | 0.0 | 0.0 | 0.00 | 0.00 | 0.00 | 59 | 1007.0 |
| 20260905043018 | 17 | 217 | 0.0 | 0.0 | 0.00 | 0.00 | 0.00 | 59 | 1006.8 |
| 20260905041516 | 17 | 217 | 0.0 | 0.0 | 0.00 | 0.00 | 0.00 | 59 | 1006.7 |
| 20260905040014 | 17 | 217 | 0.0 | 0.0 | 0.00 | 0.00 | 0.00 | 59 | 1006.5 |
| 20260905034516 | 17 | 217 | 0.0 | 0.0 | 0.00 | 0.00 | 0.00 | 59 | 1006.4 |
| 20260905033012 | 17 | 217 | 0.0 | 0.0 | 0.00 | 0.00 | 0.00 | 58 | 1006.2 |
| 20260905031512 | 17 | 217 | 0.0 | 0.0 | 0.00 | 0.00 | 0.00 | 57 | 1005.9 |
| 20260905030014 | 17 | 217 | 0.0 | 1.6 | 0.00 | 0.00 | 0.00 | 56 | 1005.9 |
| 20260905024512 | 18 | 217 | 0.0 | 1.6 | 0.00 | 0.00 | 0.00 | 54 | 1005.8 |
| 20260905023015 | 19 | 217 | 0.0 | 3.2 | 0.00 | 0.00 | 0.00 | 51 | 1005.8 |
| 20260905021520 | 20 | 217 | 0.0 | 0.0 | 0.00 | 0.00 | 0.00 | 48 | 1005.8 |
| 20260905020008 | 21 | 217 | 0.0 | 3.2 | 0.00 | 0.00 | 0.00 | 46 | 1005.7 |
| 20260905014509 | 21 | 217 | 0.0 | 4.8 | 0.00 | 0.00 | 0.00 | 44 | 1005.8 |
| 20260905013007 | 21 | 217 | 0.0 | 6.4 | 0.00 | 0.00 | 0.00 | 43 | 1005.7 |
| 20260905011507 | 22 | 215 | 0.0 | 6.4 | 0.00 | 0.00 | 0.00 | 41 | 1005.5 |
| 20260905010005 | 22 | 228 | 0.0 | 4.8 | 0.00 | 0.00 | 0.00 | 40 | 1005.5 |
| 20260905004504 | 23 | 257 | 0.0 | 11.3 | 0.00 | 0.00 | 0.00 | 39 | 1005.5 |
| 20260905003004 | 23 | 141 | 1.6 | 11.3 | 0.00 | 0.00 | 0.00 | 39 | 1005.5 |
| 20260905001503 | 23 | 237 | 1.6 | 8.0 | 0.00 | 0.00 | 0.00 | 38 | 1005.5 |
| 20260905000002 | 23 | 232 | 0.0 | 4.8 | 0.00 | 0.00 | 0.00 | 38 | 1005.5 |
| 20260904234501 | 24 | 234 | 3.2 | 8.0 | 0.00 | 0.00 | 0.00 | 35 | 1005.5 |
| 20260904233107 | 24 | 56 | 0.0 | 4.8 | 0.00 | 0.00 | 0.00 | 36 | 1005.5 |
| 20260904231557 | 23 | 217 | 1.6 | 9.7 | 0.00 | 0.00 | 0.00 | 36 | 1005.6 |
| 20260904230057 | 23 | 57 | 1.6 | 11.3 | 0.00 | 0.00 | 0.00 | 33 | 1005.7 |
| 20260904224554 | 23 | 257 | 3.2 | 14.5 | 0.00 | 0.00 | 0.00 | 34 | 1005.8 |
| 20260904223054 | 23 | 208 | 3.2 | 6.4 | 0.00 | 0.00 | 0.00 | 35 | 1005.8 |
| 20260904221554 | 23 | 240 | 3.2 | 9.7 | 0.00 | 0.00 | 0.00 | 36 | 1005.9 |
| 20260904220101 | 23 | 175 | 0.0 | 8.0 | 0.00 | 0.00 | 0.00 | 39 | 1005.9 |
| 20260904214545 | 23 | 224 | 1.6 | 8.0 | 0.00 | 0.00 | 0.00 | 45 | 1005.9 |
| 20260904213048 | 22 | 96 | 0.0 | 9.7 | 0.00 | 0.00 | 0.00 | 48 | 1006.0 |
| 20260904211541 | 22 | 250 | 0.0 | 12.9 | 0.00 | 0.00 | 0.00 | 50 | 1006.0 |
| 20260904210039 | 22 | 159 | 0.0 | 4.8 | 0.00 | 0.00 | 0.00 | 50 | 1006.0 |
| 20260904204536 | 21 | 280 | 0.0 | 9.7 | 0.00 | 0.00 | 0.00 | 52 | 1006.0 |
| 20260904203041 | 21 | 118 | 3.2 | 9.7 | 0.00 | 0.00 | 0.00 | 51 | 1006.1 |
| 20260904201536 | 21 | 229 | 0.0 | 8.0 | 0.00 | 0.00 | 0.00 | 54 | 1006.1 |
| 20260904200031 | 20 | 126 | 0.0 | 6.4 | 0.00 | 0.00 | 0.00 | 58 | 1006.0 |
| 20260904194527 | 20 | 193 | 1.6 | 6.4 | 0.00 | 0.00 | 0.00 | 59 | 1006.0 |
| 20260904193026 | 20 | 123 | 0.0 | 8.0 | 0.00 | 0.00 | 0.00 | 62 | 1006.2 |
| 20260904191525 | 19 | 204 | 0.0 | 4.8 | 0.00 | 0.00 | 0.00 | 63 | 1006.3 |
| 20260904190018 | 19 | 212 | 0.0 | 3.2 | 0.00 | 0.00 | 0.00 | 67 | 1006.3 |
| 20260904184515 | 18 | 209 | 0.0 | 6.4 | 0.00 | 0.00 | 0.00 | 69 | 1006.4 |
| 20260904183013 | 18 | 225 | 0.0 | 4.8 | 0.00 | 0.00 | 0.00 | 71 | 1006.4 |
| 20260904181513 | 17 | 225 | 3.2 | 6.4 | 0.00 | 0.00 | 0.00 | 73 | 1006.5 |
| 20260904180011 | 17 | 300 | 0.0 | 4.8 | 0.00 | 0.00 | 0.00 | 75 | 1006.4 |
| 20260904174517 | 17 | 298 | 1.6 | 4.8 | 0.00 | 0.00 | 0.00 | 78 | 1006.4 |
| 20260904173004 | 16 | 298 | 0.0 | 3.2 | 0.00 | 0.00 | 0.00 | 79 | 1006.3 |
| 20260904171502 | 16 | 298 | 0.0 | 4.8 | 0.00 | 0.00 | 0.00 | 79 | 1006.2 |
| 20260904170108 | 16 | 298 | 0.0 | 3.2 | 0.00 | 0.00 | 0.00 | 80 | 1006.1 |
| 20260904164604 | 16 | 299 | 0.0 | 1.6 | 0.00 | 0.00 | 0.00 | 81 | 1006.0 |
| 20260904163059 | 16 | 299 | 0.0 | 1.6 | 0.00 | 0.00 | 0.00 | 83 | 1006.0 |
| 20260904161604 | 15 | 231 | 0.0 | 4.8 | 0.00 | 0.00 | 0.00 | 84 | 1005.8 |
| 20260904160057 | 15 | 205 | 0.0 | 4.8 | 0.00 | 0.00 | 0.00 | 85 | 1006.0 |
| 20260904154556 | 15 | 205 | 0.0 | 3.2 | 0.00 | 0.00 | 0.00 | 85 | 1005.9 |
| 20260904153104 | 15 | 205 | 0.0 | 3.2 | 0.00 | 0.00 | 0.00 | 86 | 1005.8 |
| 20260904151554 | 15 | 205 | 0.0 | 3.2 | 0.00 | 0.00 | 0.00 | 87 | 1005.7 |
| 20260904150055 | 15 | 205 | 0.0 | 4.8 | 0.00 | 0.00 | 0.00 | 87 | 1005.8 |
| 20260904144554 | 15 | 205 | 0.0 | 3.2 | 0.00 | 0.00 | 0.00 | 86 | 1005.5 |
| 20260904143050 | 15 | 205 | 0.0 | 3.2 | 0.00 | 0.00 | 0.00 | 86 | 1005.4 |
| 20260904141548 | 15 | 246 | 0.0 | 3.2 | 0.00 | 0.00 | 0.00 | 86 | 1005.2 |
| 20260904140045 | 15 | 246 | 0.0 | 0.0 | 0.00 | 0.00 | 0.00 | 86 | 1005.1 |
| 20260904134545 | 15 | 246 | 0.0 | 3.2 | 0.00 | 0.00 | 0.00 | 86 | 1005.0 |
| 20260904133043 | 15 | 246 | 0.0 | 4.8 | 0.00 | 0.00 | 0.00 | 86 | 1004.8 |
| 20260904131539 | 15 | 246 | 0.0 | 0.0 | 0.00 | 0.00 | 0.00 | 85 | 1004.7 |
| 20260904130039 | 16 | 246 | 0.0 | 0.0 | 0.00 | 0.00 | 0.00 | 85 | 1004.6 |
| 20260904124549 | 15 | 246 | 0.0 | 0.0 | 0.00 | 0.00 | 0.00 | 84 | 1004.5 |
| 20260904123041 | 16 | 246 | 0.0 | 0.0 | 0.00 | 0.00 | 0.00 | 83 | 1004.5 |
| 20260904121535 | 16 | 246 | 0.0 | 0.0 | 0.00 | 0.00 | 0.00 | 83 | 1004.4 |
| 20260904120033 | 16 | 246 | 0.0 | 0.0 | 0.00 | 0.00 | 0.00 | 82 | 1004.4 |
| 20260904114539 | 16 | 246 | 0.0 | 0.0 | 0.00 | 0.00 | 0.00 | 82 | 1004.3 |
| 20260904113039 | 16 | 246 | 0.0 | 0.0 | 0.00 | 0.00 | 0.00 | 82 | 1004.2 |
| 20260904111530 | 16 | 246 | 0.0 | 0.0 | 0.00 | 0.00 | 0.00 | 82 | 1004.3 |
| 20260904110028 | 16 | 246 | 0.0 | 3.2 | 0.00 | 0.00 | 0.00 | 81 | 1004.2 |
| 20260904104529 | 16 | 246 | 0.0 | 3.2 | 0.00 | 0.00 | 0.00 | 81 | 1004.2 |
| 20260904103036 | 16 | 246 | 0.0 | 0.0 | 0.00 | 0.00 | 0.00 | 80 | 1004.1 |
| 20260904101525 | 16 | 246 | 0.0 | 0.0 | 0.00 | 0.00 | 0.00 | 80 | 1004.0 |
| 20260904100024 | 16 | 246 | 0.0 | 0.0 | 0.00 | 0.00 | 0.00 | 80 | 1003.9 |
| 20260904094530 | 16 | 246 | 0.0 | 3.2 | 0.00 | 0.00 | 0.00 | 81 | 1003.9 |
| 20260904093024 | 16 | 246 | 0.0 | 1.6 | 0.00 | 0.00 | 0.00 | 81 | 1003.8 |
| 20260904091523 | 16 | 246 | 0.0 | 4.8 | 0.00 | 0.00 | 0.00 | 81 | 1003.9 |
| 20260904090021 | 16 | 246 | 0.0 | 6.4 | 0.00 | 0.00 | 0.00 | 81 | 1004.0 |
| 20260904084521 | 16 | 337 | 0.0 | 3.2 | 0.00 | 0.00 | 0.00 | 81 | 1004.0 |
| 20260904083019 | 16 | 269 | 1.6 | 3.2 | 0.00 | 0.00 | 0.00 | 80 | 1004.1 |
| 20260904081517 | 16 | 271 | 0.0 | 8.0 | 0.00 | 0.00 | 0.00 | 80 | 1004.2 |
| 20260904080016 | 16 | 248 | 0.0 | 4.8 | 0.00 | 0.00 | 0.00 | 79 | 1004.2 |
| 20260904074515 | 16 | 248 | 0.0 | 6.4 | 0.00 | 0.00 | 0.00 | 79 | 1004.0 |
| 20260904073012 | 17 | 247 | 0.0 | 4.8 | 0.00 | 0.00 | 0.00 | 78 | 1004.0 |
| 20260904071511 | 17 | 247 | 0.0 | 0.0 | 0.00 | 0.00 | 0.00 | 77 | 1003.9 |
| 20260904070008 | 17 | 247 | 0.0 | 0.0 | 0.00 | 0.00 | 0.00 | 76 | 1004.0 |
| 20260904064508 | 17 | 247 | 0.0 | 0.0 | 0.00 | 0.00 | 0.00 | 76 | 1004.0 |
| 20260904063009 | 17 | 247 | 0.0 | 0.0 | 0.00 | 0.00 | 0.00 | 76 | 1004.0 |
| 20260904061507 | 17 | 247 | 0.0 | 1.6 | 0.00 | 0.00 | 0.00 | 76 | 1004.0 |
| 20260904060010 | 17 | 247 | 0.0 | 1.6 | 0.00 | 0.00 | 0.00 | 75 | 1004.2 |
| 20260904054508 | 17 | 247 | 0.0 | 4.8 | 0.00 | 0.00 | 0.00 | 75 | 1004.2 |
| 20260904053006 | 17 | 32 | 0.0 | 4.8 | 0.00 | 0.00 | 0.00 | 75 | 1004.3 |
| 20260904051514 | 17 | 271 | 0.0 | 3.2 | 0.00 | 0.00 | 0.00 | 74 | 1004.4 |